Year,Month,Day,TMAXC,TMINC,WINDKMD,PRECMM,RHMAX,RHMIN,SRKJD
2002,4,1,-3.3,-13.2,687,0,100,68,17963
2002,4,2,-7.1,-17,218,0,85,61,19452
2002,4,3,-0.3,-14.6,191,0,88,58,21294
2002,4,4,0.4,-8.7,235,0,96,60,12035
2002,4,5,2.8,-5.1,316,0,91,69,12575
2002,4,6,4.8,-2.4,249,0,99,66,11541
2002,4,7,-1,-3.5,313,0,100,75,9113
2002,4,8,9.1,-4.6,307,0.2,96,54,17838
2002,4,9,1.5,-2.1,273,0.8,100,76,6395
2002,4,10,16.6,-0.6,381,0.2,100,30,21370
2002,4,11,17.4,2,371,0,87,26,18202
2002,4,12,18.6,2.4,529,0,89,32,19954
2002,4,13,19.4,7.2,773,0,73,33,21154
2002,4,14,17.6,3.1,862,0,88,24,21449
2002,4,15,12.1,-1.3,466,0,75,20,20158
2002,4,16,11.9,-6.2,119,0,96,27,20527
2002,4,17,7.7,-3.1,383,0,92,46,14082
2002,4,18,8.6,-7.8,246,0,91,31,20236
2002,4,19,9.3,-2.3,169,0,83,31,19883
2002,4,20,14.7,-6.5,148,0,83,18,23555
2002,4,21,17.8,-3,246,0,73,26,18855
2002,4,22,17.3,-0.4,563,0.8,94,23,21184
2002,4,23,1.8,-2.1,378,2.6,100,57,14563
2002,4,24,5,-3.9,216,0,77,45,18568
2002,4,25,8.7,-4,356,0,78,35,18589
2002,4,26,7.6,-0.4,281,0,89,40,13533
2002,4,27,8.3,-4.9,295,0,92,43,20338
2002,4,28,15.7,-1.1,343,0,89,23,23566
2002,4,29,12.5,-0.7,235,0,95,53,20888
2002,4,30,8,-0.9,354,1.8,99,55,9002
2002,5,1,16.4,0.1,169,0,93,31,22417
2002,5,2,23.1,3.4,553,0,78,19,19070
2002,5,3,3.4,-4.6,413,2,100,78,22765
2002,5,4,8,-2.8,275,0.2,94,65,15024
2002,5,5,9.9,-0.9,460,3.8,100,52,10628
2002,5,6,0.7,-1.9,670,1.4,100,94,9170
2002,5,7,4.1,-5.9,328,1.6,100,57,12913
2002,5,8,8.5,-0.7,257,0,88,34,25797
2002,5,9,12.2,-3.9,167,0,95,27,25568
2002,5,10,14.9,-2.4,187,0,92,21,25364
2002,5,11,16.6,0.2,261,0,84,31,18350
2002,5,12,19.7,3.1,191,0,86,25,23929
2002,5,13,25.5,2.5,193,0,85,13,26802
2002,5,14,18.1,4.4,763,2.4,100,25,19691
2002,5,15,9.5,1.4,590,3.2,100,61,9956
2002,5,16,12.7,0.8,250,0,96,43,23860
2002,5,17,16.3,0.1,361,0,97,40,13848
2002,5,18,17.9,2.4,271,0,99,41,16205
2002,5,19,25.3,9.1,522,0,58,30,25490
2002,5,20,25.6,10.8,374,0,56,31,23500
2002,5,21,22.4,5.8,802,0,74,41,18499
2002,5,22,4.2,0.9,730,12.1,97,73,3780
2002,5,23,11.1,-0.1,349,0,88,30,22726
2002,5,24,13.8,0.1,213,0,98,46,16264
2002,5,25,16.5,2.3,180,0,100,43,19419
2002,5,26,22.3,5,242,0,97,29,22542
2002,5,27,25.3,5.5,239,0,94,25,25391
2002,5,28,22.3,8.8,502,0,84,36,19072
2002,5,29,25.4,11.9,801,0,64,26,22260
2002,5,30,25.8,9.1,348,0,72,18,27197
2002,5,31,22.8,8.6,272,0,62,27,23132
2002,6,1,21.9,6.5,265,0,82,28,19539
2002,6,2,12.1,8.8,407,24.4,100,94,3737
2002,6,3,16.1,8.6,223,6,100,65,17192
2002,6,4,23,6.7,206,0,100,36,26131
2002,6,5,23.7,9.4,649,0,91,36,23293
2002,6,6,18,9.3,418,0,70,27,21864
2002,6,7,18.2,4.2,184,0,75,26,22200
2002,6,8,12.4,6.2,610,25.6,100,53,2094
2002,6,9,9,6.1,548,19.2,100,94,3190
2002,6,10,10.4,6.6,393,6.8,100,70,5167
2002,6,11,15.1,5.7,206,0.2,100,62,11100
2002,6,12,21.7,6.4,186,0,96,38,26589
2002,6,13,25.2,5.4,130,0,99,25,26833
2002,6,14,25.6,7.6,107,0,96,28,26367
2002,6,15,28.6,8.6,186,0,98,29,25814
2002,6,16,28.8,14.8,178,0,86,32,25140
2002,6,17,26.8,15,361,0,73,29,26855
2002,6,18,14.6,9.6,298,21.6,100,80,6381
2002,6,19,19,8.7,305,9,100,54,24611
2002,6,20,22.4,7.8,143,0,99,42,25782
2002,6,21,26.2,9.5,129,0,97,36,27485
2002,6,22,27.1,11,128,0,96,37,27067
2002,6,23,25.3,11.9,222,1.8,100,55,19277
2002,6,24,27.1,12.3,219,0.2,100,39,27276
2002,6,25,28.4,10.8,143,0,96,34,26164
2002,6,26,31.3,12.5,133,0,97,34,26884
2002,6,27,32.6,15.6,205,0,91,39,24004
2002,6,28,25.5,17.7,529,0,79,38,19525
2002,6,29,24.3,14,598,0.4,90,39,22429
2002,6,30,22.3,7.3,469,0,86,31,26204
2002,7,1,20.3,5.4,366,2.4,88,30,20510
2002,7,2,25.2,6.2,309,0,86,25,26086
2002,7,3,24.7,7.5,153,0,95,43,12892
2002,7,4,23.4,12.2,564,0,74,27,23148
2002,7,5,23.7,8.1,340,0,55,26,31719
2002,7,6,28.3,9.1,128,0,80,24,30934
2002,7,7,31.4,9.5,217,1,86,33,28696
2002,7,8,21.2,13.8,240,5.2,95,77,7377
2002,7,9,24.2,13.6,300,0,97,55,18121
2002,7,10,26.9,11.8,264,0,98,53,29087
2002,7,11,32.8,13.4,193,0,94,40,28656
2002,7,12,36,17.1,142,0,91,27,28757
2002,7,13,35.2,15.3,140,0,93,43,28400
2002,7,14,32.2,19.2,385,0,83,32,23319
2002,7,15,29.4,11.7,162,0,91,37,19540
2002,7,16,28.1,12.3,138,0,94,44,20677
2002,7,17,32,13.6,206,0,97,40,25637
2002,7,18,30.3,15.8,186,0,82,46,23877
2002,7,19,28.5,14.1,250,0.2,90,43,14413
2002,7,20,24.5,12.6,230,4.4,89,40,28634
2002,7,21,23.6,11.7,258,0,91,35,25054
2002,7,22,24,7.4,187,0,97,41,29069
2002,7,23,28.3,9.7,210,0,94,42,28832
2002,7,24,31.2,15.5,141,0,92,30,25341
2002,7,25,33.5,13.2,108,0,92,30,27046
2002,7,26,30.9,12.7,225,1.8,93,33,20384
2002,7,27,23.1,14.9,103,0.2,97,52,20575
2002,7,28,28,11.5,226,4.6,97,27,24379
2002,7,29,25.6,9.1,151,0,95,34,24199
2002,7,30,24,11.5,201,0,97,41,25049
2002,7,31,16.2,6.4,334,7,98,54,14532
2002,8,1,14.2,6.1,150,0,88,56,13989
2002,8,2,19.2,4.4,308,0.6,97,56,22788
2002,8,3,10.2,4.2,240,0,92,68,9020
2002,8,4,12.6,8,210,0,93,79,9302
2002,8,5,20.4,9.4,158,3.6,100,55,14127
2002,8,6,19.9,11.2,134,3.2,100,58,17431
2002,8,7,22.2,6.8,114,0,99,32,20941
2002,8,8,23.6,7.2,127,0,99,38,15532
2002,8,9,27.6,7.9,136,0,92,30,24363
2002,8,10,22.6,11.8,156,8.8,100,59,9550
2002,8,11,19.2,7.9,281,3,100,48,22224
2002,8,12,23.2,5.8,128,0,99,38,26448
2002,8,13,28.7,11.3,199,0,90,29,25096
2002,8,14,19.2,11.9,280,10.8,97,52,12393
2002,8,15,18.7,9,193,0.2,94,54,19623
2002,8,16,15.4,6.1,264,20.4,99,48,14182
2002,8,17,22.4,4.6,174,0,94,42,24750
2002,8,18,20.7,8.2,181,1,95,50,25452
2002,8,19,25.9,7.4,129,0,96,31,22882
2002,8,20,19.3,9.4,181,0,95,65,13711
2002,8,21,23.9,7.7,125,0,98,50,19564
2002,8,22,27.4,8.8,177,0,96,32,23393
2002,8,23,29.1,9.1,102,0,94,35,22325
2002,8,24,28.9,8.8,136,0,95,37,22450
2002,8,25,27.6,11.5,123,0,95,38,20991
2002,8,26,23.2,10.9,189,4.8,94,60,11437
2002,8,27,23.7,13.1,163,2.2,97,61,16911
2002,8,28,25.1,9.4,185,0.2,100,50,21983
2002,8,29,28.4,10.7,190,0,96,37,20878
2002,8,30,25.2,11.3,289,0,93,49,16024
2002,8,31,23.9,10.6,134,3.4,99,52,20468
2002,9,1,19.7,7,315,5.4,97,54,9960
2002,9,2,23.6,3.5,224,0,100,40,20606
2002,9,3,27,11.2,239,0,89,32,20088
2002,9,4,17,8.4,202,1.8,98,64,10242
2002,9,5,12.3,9.1,160,4.8,100,88,4464
2002,9,6,14.1,10,148,0.2,100,77,7469
2002,9,7,17.7,7.2,157,5.4,100,59,10867
2002,9,8,19.9,5.4,358,0,94,32,18972
2002,9,9,22.9,5.4,293,0,88,31,19815
2002,9,10,26.2,7.6,220,0,90,34,19579
2002,9,11,22,8.3,183,0,87,45,19500
2002,9,12,27.7,5.3,125,0,99,34,19157
2002,9,13,18.9,9.6,258,0,91,47,16631
2002,9,14,25.4,5.1,174,0,97,36,17304
2002,9,15,28.6,10.2,170,0,79,29,15239
2002,9,16,24.6,11.6,411,0,63,26,9033
2002,9,17,15.9,8.8,250,0.2,93,47,9250
2002,9,18,19.4,5.7,184,0.2,99,34,17128
2002,9,19,25.2,5.3,625,0.2,87,23,16403
2002,9,20,14.2,1.9,225,5,99,40,13205
2002,9,21,14.1,2.9,279,0,87,37,16977
2002,9,22,11.1,0.3,298,0,96,59,6185
2002,9,23,16.3,-0.9,242,0.8,99,53,13022
2002,9,24,9.6,5.2,156,0.4,97,57,8820
2002,9,25,15.8,-0.1,133,0,97,38,14417
2002,9,26,15.6,3.2,170,0,97,49,9691
2002,9,27,10,0.2,204,0,93,53,9556
2002,9,28,21.6,-0.4,270,0,98,32,15474
2002,9,29,13.4,6.2,171,3.2,100,60,5306
2002,9,30,6.6,0.5,322,16.8,100,96,2736
2002,10,1,10.3,0.6,179,0.8,98,50,13417
2002,10,2,16.6,-0.4,279,0.2,94,40,12389
2002,10,3,10.0,4.6,213,0.0,87,58,5791
2002,10,4,6.8,1.0,164,1.4,99,66,5811
2002,10,5,6.0,-0.5,275,0.2,100,66,5216
2002,10,6,20.4,-1.3,264,0.0,97,37,9739
2002,10,7,14.3,3.8,225,2.0,97,56,7318
2002,10,8,16.2,0.2,154,0.2,99,38,12036
2002,10,9,17.1,1.3,285,0.0,93,35,10756
2002,10,10,8.5,-1.1,236,0.0,99,57,4998
2002,10,11,0.6,-3.3,258,0.2,99,72,6869
2002,10,12,8.9,-8.9,177,0.4,92,41,13545
2002,10,13,16.0,-1.2,272,0.0,88,35,5496
2002,10,14,13.1,-0.7,145,0.0,88,34,12320
2002,10,15,13.5,-4.8,201,0.0,95,42,9935
2002,10,16,14.4,0.6,147,0.0,93,39,10280
2002,10,17,18.0,0.8,163,0.0,92,29,8334
2002,10,18,12.0,0.8,110,0.0,97,66,6538
2002,10,19,15.2,-4.3,120,0.0,100,47,8078
2002,10,20,11.7,-2.4,122,0.0,100,63,8176
2002,10,21,3.5,-2.6,267,3.0,100,87,3085
2002,10,22,0.7,-4.5,191,0.2,96,67,5930
2002,10,23,3.1,-8.5,220,0.6,91,57,10981
2002,10,24,8.8,-10.2,129,0.0,95,58,11860
2002,10,25,8.0,-3.0,134,0.2,99,66,7899
2002,10,26,-0.1,-3.8,148,0.0,100,86,3267
2002,10,27,5.6,-5.0,167,1.0,97,71,6231
2002,10,28,-0.5,-8.2,351,0.0,97,74,4696
2002,10,29,-5.0,-16.9,178,0.0,95,63,9081
2002,10,30,-5.7,-20.6,140,0.0,90,52,10713
2002,10,31,-1.6,-17.8,107,0.0,89,52,9921